TimeCDT,TemperatureF,Dew PointF,Humidity,Sea Level PressureIn,VisibilityMPH,Wind Direction,Wind SpeedMPH,Gust SpeedMPH,PrecipitationIn,Events,Conditions,WindDirDegrees,DateUTC
12:15 AM,57.2,15.8,20,29.93,10.0,NW,5.8,-,N/A,,Clear,320,2013-05-01 05:15:00
12:35 AM,55.4,15.8,21,29.93,10.0,NW,11.5,-,N/A,,Clear,320,2013-05-01 05:35:00
12:55 AM,55.4,15.8,21,29.93,10.0,North,5.8,-,N/A,,Clear,350,2013-05-01 05:55:00
1:15 AM,55.4,12.2,18,29.93,10.0,NW,6.9,-,N/A,,Clear,320,2013-05-01 06:15:00
1:35 AM,53.6,15.8,22,29.93,10.0,North,5.8,-,N/A,,Clear,350,2013-05-01 06:35:00
1:55 AM,51.8,15.8,24,29.93,10.0,North,5.8,-,N/A,,Clear,10,2013-05-01 06:55:00
2:15 AM,51.8,15.8,24,29.93,10.0,North,4.6,-,N/A,,Clear,10,2013-05-01 07:15:00
2:35 AM,50.0,14.0,24,29.93,10.0,North,3.5,-,N/A,,Clear,360,2013-05-01 07:35:00
2:55 AM,48.2,14.0,25,29.92,10.0,North,3.5,-,N/A,,Clear,360,2013-05-01 07:55:00
3:15 AM,50.0,14.0,24,29.92,10.0,NNW,3.5,-,N/A,,Clear,330,2013-05-01 08:15:00
3:35 AM,50.0,14.0,24,29.92,10.0,Calm,Calm,-,N/A,,Clear,0,2013-05-01 08:35:00
3:55 AM,48.2,15.8,27,29.93,10.0,NW,3.5,-,N/A,,Clear,310,2013-05-01 08:55:00
4:15 AM,48.2,15.8,27,29.93,10.0,West,4.6,-,N/A,,Clear,270,2013-05-01 09:15:00
4:35 AM,51.8,15.8,24,29.93,10.0,West,3.5,-,N/A,,Clear,280,2013-05-01 09:35:00
4:55 AM,44.6,12.2,27,29.94,10.0,East,5.8,-,N/A,,Clear,100,2013-05-01 09:55:00
5:15 AM,44.6,15.8,31,29.95,10.0,ESE,3.5,-,N/A,,Clear,110,2013-05-01 10:15:00
5:35 AM,50.0,15.8,26,29.95,10.0,ENE,5.8,-,N/A,,Clear,70,2013-05-01 10:35:00
5:55 AM,48.2,15.8,27,29.96,10.0,Calm,Calm,-,N/A,,Clear,0,2013-05-01 10:55:00
6:15 AM,46.4,14.0,27,29.96,10.0,East,3.5,-,N/A,,Clear,90,2013-05-01 11:15:00
6:35 AM,50.0,15.8,26,29.97,10.0,SSE,9.2,-,N/A,,Clear,150,2013-05-01 11:35:00
6:55 AM,48.2,12.2,24,29.97,10.0,NE,4.6,-,N/A,,Clear,50,2013-05-01 11:55:00
7:15 AM,57.2,15.8,20,29.99,10.0,ENE,3.5,-,N/A,,Clear,70,2013-05-01 12:15:00
7:35 AM,55.4,14.0,20,29.99,10.0,NW,8.1,-,N/A,,Clear,310,2013-05-01 12:35:00
8:15 AM,66.2,19.4,17,30.01,10.0,Calm,Calm,-,N/A,,Clear,0,2013-05-01 13:15:00
8:35 AM,69.8,21.2,16,30.02,10.0,WNW,11.5,-,N/A,,Clear,300,2013-05-01 13:35:00
8:55 AM,71.6,19.4,14,30.02,10.0,NW,17.3,21.9,N/A,,Clear,310,2013-05-01 13:55:00
9:15 AM,73.4,19.4,13,30.03,10.0,WNW,20.7,24.2,N/A,,Clear,300,2013-05-01 14:15:00
9:35 AM,73.4,19.4,13,30.03,10.0,WNW,24.2,31.1,N/A,,Clear,300,2013-05-01 14:35:00
10:15 AM,77.0,21.2,12,30.04,10.0,WNW,19.6,27.6,N/A,,Clear,290,2013-05-01 15:15:00
10:35 AM,78.8,21.2,12,30.04,10.0,WNW,21.9,-,N/A,,Clear,290,2013-05-01 15:35:00
10:55 AM,78.8,21.2,12,30.04,10.0,WNW,19.6,27.6,N/A,,Clear,300,2013-05-01 15:55:00
11:15 AM,80.6,21.2,11,30.05,10.0,WNW,18.4,-,N/A,,Clear,290,2013-05-01 16:15:00
11:35 AM,80.6,21.2,11,30.05,10.0,WNW,17.3,25.3,N/A,,Clear,300,2013-05-01 16:35:00
11:55 AM,82.4,21.2,10,30.05,10.0,WNW,15.0,23.0,N/A,,Clear,290,2013-05-01 16:55:00
12:15 PM,82.4,21.2,10,30.05,10.0,NW,12.7,23.0,N/A,,Clear,310,2013-05-01 17:15:00
12:35 PM,84.2,23.0,11,30.04,10.0,WNW,11.5,21.9,N/A,,Clear,290,2013-05-01 17:35:00
12:55 PM,84.2,23.0,11,30.04,10.0,West,6.9,16.1,N/A,,Clear,270,2013-05-01 17:55:00
1:15 PM,84.2,23.0,11,30.04,10.0,WNW,5.8,-,N/A,,Clear,290,2013-05-01 18:15:00
1:35 PM,86.0,24.8,11,30.04,10.0,West,12.7,21.9,N/A,,Clear,260,2013-05-01 18:35:00
2:15 PM,87.8,24.8,10,30.03,10.0,WNW,5.8,-,N/A,,Clear,300,2013-05-01 19:15:00
2:35 PM,87.8,24.8,10,30.03,10.0,West,12.7,-,N/A,,Clear,270,2013-05-01 19:35:00
2:55 PM,87.8,24.8,10,30.03,10.0,SSW,10.4,16.1,N/A,,Clear,200,2013-05-01 19:55:00
3:15 PM,87.8,26.6,11,30.03,10.0,WNW,12.7,16.1,N/A,,Clear,300,2013-05-01 20:15:00
3:35 PM,87.8,24.8,10,30.03,10.0,WSW,8.1,-,N/A,,Clear,240,2013-05-01 20:35:00
3:55 PM,86.0,24.8,11,30.02,10.0,WNW,10.4,19.6,N/A,,Clear,300,2013-05-01 20:55:00
4:15 PM,87.8,26.6,11,30.02,10.0,SW,9.2,26.5,N/A,,Clear,220,2013-05-01 21:15:00
4:35 PM,89.6,26.6,10,30.02,10.0,West,17.3,23.0,N/A,,Clear,270,2013-05-01 21:35:00
4:55 PM,87.8,24.8,10,30.01,10.0,WNW,8.1,-,N/A,,Clear,300,2013-05-01 21:55:00
5:15 PM,87.8,24.8,10,30.01,10.0,SSW,10.4,-,N/A,,Clear,200,2013-05-01 22:15:00
5:35 PM,87.8,24.8,10,30.01,10.0,WSW,15.0,19.6,N/A,,Clear,240,2013-05-01 22:35:00
5:55 PM,87.8,24.8,10,30.01,10.0,WSW,12.7,19.6,N/A,,Clear,240,2013-05-01 22:55:00
6:15 PM,87.8,24.8,10,30.01,10.0,NNW,8.1,-,N/A,,Clear,340,2013-05-01 23:15:00
6:35 PM,87.8,24.8,10,30.01,10.0,West,12.7,18.4,N/A,,Clear,270,2013-05-01 23:35:00
6:55 PM,84.2,24.8,11,30.01,10.0,SW,10.4,19.6,N/A,,Clear,230,2013-05-01 23:55:00
7:15 PM,84.2,23.0,11,30.01,10.0,SW,9.2,-,N/A,,Clear,220,2013-05-02 00:15:00
7:35 PM,84.2,23.0,11,30.02,10.0,WSW,9.2,19.6,N/A,,Clear,250,2013-05-02 00:35:00
7:55 PM,82.4,21.2,10,30.02,10.0,West,10.4,-,N/A,,Clear,270,2013-05-02 00:55:00
8:35 PM,78.8,19.4,11,30.03,10.0,West,9.2,-,N/A,,Clear,270,2013-05-02 01:35:00
8:55 PM,73.4,17.6,12,30.03,10.0,WNW,8.1,-,N/A,,Clear,290,2013-05-02 01:55:00
9:35 PM,69.8,17.6,14,30.04,10.0,NW,10.4,-,N/A,,Clear,310,2013-05-02 02:35:00
9:55 PM,66.2,17.6,15,30.05,10.0,NW,8.1,-,N/A,,Clear,320,2013-05-02 02:55:00
10:15 PM,66.2,17.6,15,30.06,10.0,NW,10.4,-,N/A,,Clear,310,2013-05-02 03:15:00
10:35 PM,62.6,17.6,18,30.07,10.0,WNW,8.1,-,N/A,,Clear,300,2013-05-02 03:35:00
10:55 PM,62.6,19.4,19,30.08,10.0,NNW,9.2,-,N/A,,Clear,340,2013-05-02 03:55:00
11:15 PM,69.8,23.0,17,30.09,10.0,NNE,8.1,-,N/A,,Clear,20,2013-05-02 04:15:00
11:35 PM,66.2,24.8,21,30.10,10.0,NNE,12.7,-,N/A,,Clear,20,2013-05-02 04:35:00
11:55 PM,68.0,28.4,23,30.11,10.0,North,15.0,-,N/A,,Clear,10,2013-05-02 04:55:00